• In Sweden
  • List of Countries
  • For 7 days
  • Water Temperature
  • Satellite Maps
  • Weather Map
  • Weather Widgets
  • user-avatar
    Login

    Hourly Weather Garmisch-Partenkirchen

    Today, 24 September, Monday

    Time Temperature Precipitation Wind Pressure Humidity
    00:00 +11°C° 2.8 mm 4 mps 676 mmHg 96%
    01:00 +8°C° 0 mm 4 mps 677 mmHg 97%
    02:00 +8°C° 0.7 mm 3 mps 677 mmHg 97%
    03:00 +8°C° 0.7 mm 3 mps 678 mmHg 97%
    04:00 +7°C° 0.7 mm 3 mps 678 mmHg 96%
    05:00 +7°C° 0.8 mm 3 mps 679 mmHg 96%
    06:00 +5°C° 0.8 mm 3 mps 679 mmHg 96%
    07:00 +6°C° 0 mm 2 mps 680 mmHg 96%
    08:00 +6°C° 0.2 mm 2 mps 681 mmHg 93%
    09:00 +6°C° 0.2 mm 2 mps 681 mmHg 90%
    10:00 +7°C° 0.2 mm 3 mps 682 mmHg 87%
    11:00 +7°C° 0.1 mm 2 mps 682 mmHg 82%
    12:00 +8°C° 0.1 mm 2 mps 683 mmHg 76%
    13:00 +9°C° 0.1 mm 2 mps 683 mmHg 71%
    14:00 +9°C° 0 mm 2 mps 683 mmHg 69%
    15:00 +9°C° 0 mm 2 mps 683 mmHg 66%
    16:00 +9°C° 0 mm 2 mps 683 mmHg 64%
    17:00 +7°C° 0 mm 2 mps 683 mmHg 71%
    18:00 +6°C° 0 mm 2 mps 683 mmHg 79%
    19:00 +5°C° 0 mm 1 mps 684 mmHg 87%
    20:00 +4°C° 0 mm 1 mps 684 mmHg 88%
    21:00 +4°C° 0 mm 1 mps 684 mmHg 89%
    22:00 +3°C° 0 mm 1 mps 685 mmHg 90%
    23:00 +3°C° 0 mm 1 mps 685 mmHg 90%

    Tomorrow, 25 September, Tuesday

    Time Temperature Precipitation Wind Pressure Humidity
    00:00 +3°C° 0 mm 1 mps 685 mmHg 90%
    01:00 +3°C° 0 mm 1 mps 685 mmHg 91%
    02:00 +3°C° 0 mm 1 mps 685 mmHg 90%
    03:00 +3°C° 0 mm 1 mps 685 mmHg 89%
    04:00 +2°C° 0 mm 1 mps 685 mmHg 88%
    05:00 +3°C° 0 mm 1 mps 685 mmHg 86%
    06:00 +3°C° 0 mm 1 mps 685 mmHg 84%
    07:00 +4°C° 0 mm 1 mps 686 mmHg 82%
    08:00 +6°C° 0 mm 1 mps 686 mmHg 73%
    09:00 +7°C° 0 mm 2 mps 686 mmHg 63%
    10:00 +9°C° 0 mm 2 mps 686 mmHg 54%
    11:00 +10°C° 0 mm 2 mps 686 mmHg 51%
    12:00 +11°C° 0 mm 3 mps 686 mmHg 48%
    13:00 +12°C° 0 mm 3 mps 686 mmHg 45%
    14:00 +12°C° 0 mm 3 mps 686 mmHg 47%
    15:00 +11°C° 0 mm 3 mps 686 mmHg 49%
    16:00 +11°C° 0 mm 3 mps 686 mmHg 51%
    17:00 +9°C° 0 mm 2 mps 686 mmHg 62%
    18:00 +6°C° 0 mm 2 mps 685 mmHg 72%
    19:00 +5°C° 0 mm 1 mps 685 mmHg 83%
    20:00 +5°C° 0 mm 1 mps 686 mmHg 82%
    21:00 +4°C° 0 mm 1 mps 686 mmHg 81%
    22:00 +4°C° 0 mm 1 mps 686 mmHg 81%
    23:00 +3°C° 0 mm 2 mps 686 mmHg 79%

    Day after tomorrow, 26 September, Wednesday

    Time Temperature Precipitation Wind Pressure Humidity
    00:00 +3°C° 0 mm 2 mps 686 mmHg 77%
    01:00 +3°C° 0 mm 2 mps 686 mmHg 75%
    02:00 +3°C° 0 mm 2 mps 686 mmHg 75%
    03:00 +3°C° 0 mm 2 mps 686 mmHg 74%
    04:00 +3°C° 0 mm 2 mps 686 mmHg 74%
    05:00 +5°C° 0 mm 1 mps 686 mmHg 71%
    06:00 +5°C° 0 mm 1 mps 686 mmHg 69%
    07:00 +6°C° 0 mm 1 mps 686 mmHg 66%
    08:00 +9°C° 0 mm 1 mps 687 mmHg 57%
    09:00 +13°C° 0 mm 1 mps 687 mmHg 47%
    10:00 +15°C° 0 mm 0 mps 688 mmHg 38%
    11:00 +18°C° 0 mm 1 mps 688 mmHg 37%
    12:00 +19°C° 0 mm 1 mps 688 mmHg 36%
    13:00 +20°C° 0 mm 1 mps 688 mmHg 34%
    14:00 +20°C° 0 mm 1 mps 688 mmHg 39%
    15:00 +19°C° 0 mm 1 mps 687 mmHg 43%
    16:00 +19°C° 0 mm 1 mps 687 mmHg 48%
    17:00 +15°C° 0 mm 1 mps 686 mmHg 59%
    18:00 +12°C° 0 mm 1 mps 686 mmHg 70%
    19:00 +9°C° 0 mm 1 mps 685 mmHg 81%
    20:00 +9°C° 0 mm 1 mps 686 mmHg 79%
    21:00 +9°C° 0 mm 1 mps 686 mmHg 77%
    22:00 +8°C° 0 mm 1 mps 686 mmHg 76%
    23:00 +8°C° 0 mm 1 mps 686 mmHg 73%

    27 September, Thursday

    Time Temperature Precipitation Wind Pressure Humidity
    00:00 +8°C° 0 mm 1 mps 686 mmHg 70%
    01:00 +8°C° 0 mm 1 mps 686 mmHg 68%
    02:00 +8°C° 0 mm 1 mps 685 mmHg 64%
    03:00 +8°C° 0 mm 1 mps 685 mmHg 61%
    04:00 +8°C° 0 mm 1 mps 685 mmHg 58%
    05:00 +8°C° 0 mm 1 mps 685 mmHg 57%
    06:00 +9°C° 0 mm 1 mps 685 mmHg 56%
    07:00 +9°C° 0 mm 1 mps 685 mmHg 55%
    08:00 +12°C° 0 mm 1 mps 686 mmHg 49%
    09:00 +16°C° 0 mm 1 mps 686 mmHg 43%
    10:00 +20°C° 0 mm 1 mps 687 mmHg 37%
    11:00 +21°C° 0 mm 1 mps 686 mmHg 37%
    12:00 +22°C° 0 mm 1 mps 686 mmHg 37%
    13:00 +23°C° 0 mm 1 mps 686 mmHg 36%
    14:00 +22°C° 0 mm 1 mps 686 mmHg 40%
    15:00 +22°C° 0 mm 1 mps 685 mmHg 45%
    16:00 +21°C° 0 mm 1 mps 684 mmHg 49%
    17:00 +18°C° 0 mm 1 mps 684 mmHg 60%
    18:00 +14°C° 0 mm 1 mps 683 mmHg 71%
    19:00 +11°C° 0 mm 1 mps 682 mmHg 82%
    20:00 +11°C° 0 mm 1 mps 682 mmHg 81%
    21:00 +11°C° 0 mm 1 mps 682 mmHg 80%
    22:00 +10°C° 0 mm 1 mps 682 mmHg 80%
    23:00 +10°C° 0 mm 1 mps 682 mmHg 79%

    28 September, Friday

    Time Temperature Precipitation Wind Pressure Humidity
    00:00 +10°C° 0 mm 1 mps 681 mmHg 77%
    01:00 +10°C° 0 mm 1 mps 681 mmHg 76%
    02:00 +10°C° 0 mm 1 mps 681 mmHg 75%
    03:00 +9°C° 0 mm 1 mps 680 mmHg 74%
    04:00 +9°C° 0 mm 1 mps 680 mmHg 73%
    05:00 +9°C° 0 mm 1 mps 680 mmHg 71%
    06:00 +10°C° 0 mm 1 mps 680 mmHg 68%
    07:00 +10°C° 0 mm 1 mps 679 mmHg 66%
    08:00 +13°C° 0 mm 1 mps 680 mmHg 58%
    09:00 +16°C° 0 mm 1 mps 680 mmHg 50%
    10:00 +20°C° 0 mm 1 mps 681 mmHg 42%
    11:00 +21°C° 0 mm 1 mps 681 mmHg 41%
    12:00 +22°C° 0 mm 1 mps 680 mmHg 40%
    13:00 +22°C° 0 mm 1 mps 680 mmHg 39%
    14:00 +22°C° 0 mm 1 mps 680 mmHg 44%
    15:00 +21°C° 0 mm 1 mps 679 mmHg 49%
    16:00 +20°C° 0 mm 2 mps 679 mmHg 53%
    17:00 +18°C° 0 mm 1 mps 678 mmHg 65%
    18:00 +14°C° 0 mm 1 mps 678 mmHg 77%
    19:00 +10°C° 0 mm 0 mps 677 mmHg 88%
    20:00 +11°C° 0 mm 1 mps 677 mmHg 89%
    21:00 +11°C° 0 mm 1 mps 677 mmHg 90%
    22:00 +10°C° 0 mm 1 mps 677 mmHg 92%
    23:00 +10°C° 0 mm 1 mps 677 mmHg 92%

    29 September, Saturday

    Time Temperature Precipitation Wind Pressure Humidity
    00:00 +10°C° 0 mm 1 mps 677 mmHg 92%
    01:00 +10°C° 0 mm 1 mps 677 mmHg 93%
    02:00 +9°C° 0 mm 1 mps 677 mmHg 93%
    03:00 +9°C° 0 mm 1 mps 677 mmHg 94%
    04:00 +9°C° 0 mm 1 mps 677 mmHg 94%
    05:00 +9°C° 0 mm 1 mps 677 mmHg 94%
    06:00 +9°C° 0 mm 1 mps 677 mmHg 93%
    07:00 +10°C° 0 mm 1 mps 678 mmHg 92%
    08:00 +11°C° 0 mm 1 mps 678 mmHg 85%
    09:00 +13°C° 0 mm 1 mps 678 mmHg 78%
    10:00 +15°C° 0 mm 1 mps 679 mmHg 70%
    11:00 +16°C° 0 mm 2 mps 679 mmHg 67%
    12:00 +17°C° 0 mm 2 mps 679 mmHg 64%
    13:00 +17°C° 0 mm 2 mps 679 mmHg 62%
    14:00 +17°C° 0 mm 2 mps 678 mmHg 64%
    15:00 +17°C° 0 mm 2 mps 678 mmHg 67%
    16:00 +17°C° 0 mm 2 mps 678 mmHg 69%
    17:00 +15°C° 0 mm 2 mps 678 mmHg 78%
    18:00 +13°C° 0 mm 1 mps 678 mmHg 86%
    19:00 +11°C° 0 mm 1 mps 678 mmHg 95%
    20:00 +10°C° 0 mm 1 mps 678 mmHg 95%
    21:00 +10°C° 0 mm 1 mps 678 mmHg 95%
    22:00 +10°C° 0 mm 1 mps 678 mmHg 95%
    23:00 +9°C° 0 mm 2 mps 678 mmHg 94%
    Show more